Weather History for Page, AZ

Change the Weather History Date:

Sunday, December 18, 2011

  Actual Average Record
Temperature  
Mean Temperature 35 °F -  
Max Temperature 37 °F 43 °F 57 °F (1998)
Min Temperature 33 °F 26 °F 8 °F (1967)
Degree Days  
Heating Degree Days 30    
Moisture  
Dew Point 29 °F    
Average Humidity 77    
Maximum Humidity 87    
Minimum Humidity 64    
Precipitation  
Precipitation 0.00 in - - ()
Sea Level Pressure  
Sea Level Pressure 30.12 in    
Wind  
Wind Speed 2 mph (SSE)    
Max Wind Speed 6 mph    
Max Gust Speed -    
Visibility 8 miles    
Events Snow    
Averages and records for this station are not official NWS values.
T = Trace of Precipitation, MM = Missing Value Source: NWS Daily Summary

Daily Weather History Graph

Daily Weather History Graph

Search for Another Location

Airport:

Trip Planner

Search our weather history database for the weather conditions in past years. The results will help you decide how hot, cold, wet, or windy it might be!

Date:

Astronomy

Dec. 18, 2011 Rise Set
Actual Time 7:33 AM MST 5:11 PM MST
Civil Twilight 7:04 AM MST 5:40 PM MST
Nautical Twilight 6:31 AM MST 6:12 PM MST
Astronomical Twilight 6:00 AM MST 6:44 PM MST
Moon 12:45 AM MST (12/18) 12:32 PM MST (12/18)
Length of Visible Light 10h 36m
Length of Day
9h 38m
Last Quarter, 41% of the Moon is Illuminated
Dec 18
Last Quarter
Dec 24
New
Dec 31
First Quarter
Jan 9
Full
Jan 16
Last Quarter

Hourly Weather History & Observations

Time (MST) Temp. Windchill Dew Point Humidity Pressure Visibility Wind Dir Wind Speed Gust Speed Precip Events Conditions
12:53 AM 36.0 °F - 25.0 °F 64% 30.26 in 6.0 mi Calm Calm - N/A   Haze
1:53 AM 35.1 °F - 25.0 °F 67% 30.23 in 5.0 mi Calm Calm - N/A   Haze
2:53 AM 36.0 °F 33.3 °F 26.1 °F 67% 30.22 in 10.0 mi SSW 3.5 mph - N/A   Scattered Clouds
3:53 AM 34.0 °F - 26.1 °F 73% 30.22 in 8.0 mi Calm Calm - N/A   Mostly Cloudy
4:53 AM 33.8 °F 30.8 °F 26.6 °F 75% 30.21 in 8.0 mi South 3.5 mph - N/A   Scattered Clouds
5:53 AM 34.0 °F 29.8 °F 26.1 °F 73% 30.19 in 10.0 mi SW 4.6 mph - N/A   Clear
6:53 AM 34.0 °F 28.8 °F 25.0 °F 70% 30.20 in 10.0 mi SSW 5.8 mph - N/A   Mostly Cloudy
7:53 AM 35.1 °F - 25.0 °F 67% 30.20 in 10.0 mi Calm Calm - N/A   Scattered Clouds
8:53 AM 35.1 °F - 27.0 °F 72% 30.20 in 10.0 mi Calm Calm - N/A   Overcast
9:53 AM 36.0 °F - 27.0 °F 70% 30.21 in 10.0 mi Calm Calm - N/A   Overcast
10:38 AM 37.4 °F 34.9 °F 28.4 °F 70% 30.21 in 2.0 mi SSE 3.5 mph - 0.00 in Snow Light Snow
10:45 AM 35.6 °F 32.8 °F 28.4 °F 75% 30.20 in 1.5 mi SSE 3.5 mph - 0.00 in Snow Light Snow
11:08 AM 33.8 °F 29.6 °F 30.2 °F 87% 30.19 in 2.0 mi SE 4.6 mph - 0.01 in Snow Light Snow
11:17 AM 33.8 °F 29.6 °F 30.2 °F 87% 30.19 in 6.0 mi SE 4.6 mph - 0.01 in   Overcast
11:53 AM 35.6 °F 32.8 °F 30.2 °F 81% 30.18 in 6.0 mi SE 3.5 mph - N/A Snow Light Snow
12:16 PM 35.6 °F - 30.2 °F 81% 30.17 in 1.8 mi Calm Calm - 0.00 in Snow Light Snow
12:29 PM 35.6 °F - 30.2 °F 81% 30.15 in 3.0 mi Calm Calm - 0.00 in Snow Light Snow
12:53 PM 36.0 °F - 30.9 °F 82% 30.15 in 7.0 mi Calm Calm - 0.00 in   Overcast
1:00 PM 35.6 °F - 30.2 °F 81% 30.13 in 8.0 mi Calm Calm - 0.00 in   Overcast
1:53 PM 36.0 °F 33.3 °F 30.9 °F 82% 30.12 in 10.0 mi ENE 3.5 mph - 0.00 in   Overcast
2:22 PM 37.4 °F 34.9 °F 32.0 °F 81% 30.09 in 10.0 mi East 3.5 mph - N/A   Overcast
2:53 PM 37.0 °F - 30.9 °F 79% 30.09 in 10.0 mi Calm Calm - N/A   Overcast
3:53 PM 37.9 °F - 30.9 °F 76% 30.08 in 10.0 mi Calm Calm - N/A   Overcast
4:19 PM 37.4 °F - 30.2 °F 75% 30.06 in 10.0 mi Calm Calm - N/A   Overcast
4:53 PM 37.9 °F - 30.9 °F 76% 30.06 in 10.0 mi Calm Calm - N/A   Overcast
5:07 PM 37.4 °F - 30.2 °F 75% 30.05 in 10.0 mi Calm Calm - N/A   Mostly Cloudy
5:53 PM 36.0 °F - 30.9 °F 82% 30.06 in 10.0 mi Calm Calm - N/A   Overcast
6:53 PM 36.0 °F 33.3 °F 30.9 °F 82% 30.04 in 9.0 mi East 3.5 mph - N/A   Mostly Cloudy
7:10 PM 35.6 °F - 30.2 °F 81% 30.02 in 10.0 mi Calm Calm - N/A   Scattered Clouds
7:34 PM 35.6 °F - 30.2 °F 81% 30.02 in 10.0 mi Calm Calm - N/A   Mostly Cloudy
7:53 PM 37.0 °F - 30.9 °F 79% 30.02 in 10.0 mi Calm Calm - N/A   Overcast
8:53 PM 36.0 °F 31.1 °F 30.9 °F 82% 30.01 in 10.0 mi SSE 5.8 mph - N/A   Overcast
9:53 PM 36.0 °F - 32.0 °F 86% 30.00 in 10.0 mi Calm Calm - N/A   Overcast
10:02 PM 35.6 °F - 30.2 °F 81% 29.99 in 9.0 mi Calm Calm - N/A   Overcast
10:53 PM 36.0 °F 31.1 °F 30.9 °F 82% 30.00 in 10.0 mi SSE 5.8 mph - N/A   Overcast
11:53 PM 36.0 °F 32.1 °F 32.0 °F 86% 29.98 in 10.0 mi SE 4.6 mph - N/A   Overcast